Showing default

ORBCOMM FM 114, 41179

Orbit data source: Space-Track

ORBCOMM FM 114, 41179 is a payload satellite owned by Orbcomm (US) in LEO that was launched on Tue, 22 Dec 2015 UTC via an FALCON 9 launch vehicle from the Air Force Eastern Test Range (AFETR). Payload-class satellites include a variety of spacecraft equipped with specific instruments for various scientific and technological missions. These include communications satellites like Starlink; space stations such as the ISS; scientific satellites like the Hubble; Earth observation satellites from companies like Planet Labs, Umbra, and HawkEye 360; GPS; miniature CubeSats for education and research; and military/defense satellites.

Loading next visibility...
Identifier
41179, 2015-081A
Orbit
LEO
Country
Flag of USUS / ORB
Related business
Manufacturer
SNC Louisville
Mission
Partially operational Commercial Communications
Bus & Motor
SN-100A, Unknown motor
Mass
172 kg wet, 158 kg dry
Launch date (UTC)
2015-12-22 (10 years ago)
Launch vehicle
FALCON 9
Launch site
Air Force Eastern Test Range (AFETR)
Object type
Payload
Rocket body
Debris
Shape & HBR
Box + 1 Pan + 1 Ant, 6.5 m
Radar Cross Section
2.222 m², Medium (>0.1 m² and < 1m²)

Expand to show TLE details & history
Last TLE update: 1 day ago

TLE from 1 day ago
0 ORBCOMM FM 114
1 41179U 15081A   25257.34543043  .00000458  00000-0  13442-3 0  9998
2 41179  47.0018 225.7054 0001963   9.3659 350.7263 14.58333406517488
Epoch: 2025-09-14T08:17Z
TLE epoch observation values (Epoch: 2025-09-14T08:17:25.189Z)
Latitude
Longitude
107.78468°
Altitude
697.405 km
Speed
7.51 km/s
True Right ascension
15h 02m 49s
True Declination
0° 00' 00"
Sunlit
Object was in daylight at epoch
Visualization orbit readout
Latitude
Unknown
Longitude
Unknown
Altitude
Unknown
Speed
Unknown
Apparent Right ascension
Unknown
Apparent Declination
Unknown
Sunlit
N/A
Visualization observer readout
Local Sidereal Time
00:36:10
Azimuth
Unknown
Elevation
Unknown
Doppler factor
Unknown
Orbital elements
Apogee altitude
701.184 km
Perigee altitude
698.405 km
Semi-major axis
7,077.932 km
Eccentricity
0.0002
Inclination
47.0018°
RAAN
225.7054°
Arg. of periapsis
9.3659°
True anomaly
350.72267°
Mean anomaly
350.7263°
Eccentric anomaly
350.72449°
Mean motion
3.64488 °/min
Orbital period
98.77 mins
BSTAR
0.00013442
Loading maneuver chart data...
Computing Atmospheric mass density...
Loading historical data...
Loading historical data...
Loading historical data...
Loading historical data...
Loading historical data...
Loading historical data...
Loading historical data...

Documentation

Showing up to 5 results
|